This is the latest recevied weather packets stored in our database for station/object KM5R. If no packets are shown the sender has not sent any weather packets the latest 10 day(s).
| Time | Temp. | Humidity | Pressure | Rain* | Wind** | Luminosity | Snow |
|---|---|---|---|---|---|---|---|
| 1778019002 | 31.67° C | 54% | 1006.3 hPa | 0 mm | - | 307 W/m² | - |
| 1778018699 | 31.67° C | 53% | 1006.4 hPa | 0 mm | - | 421 W/m² | - |
| 1778018397 | 32.22° C | 52% | 1006.5 hPa | 0 mm | - | 547 W/m² | - |
| 1778018095 | 32.22° C | 49% | 1006.5 hPa | 0 mm | - | 467 W/m² | - |
| 1778017792 | 32.22° C | 48% | 1006.5 hPa | 0 mm | - | 383 W/m² | - |
| 1778017490 | 32.22° C | 48% | 1006.4 hPa | 0 mm | - | 505 W/m² | - |
| 1778017187 | 32.22° C | 49% | 1006.5 hPa | 0 mm | - | 406 W/m² | - |
| 1778016885 | 31.67° C | 50% | 1006.5 hPa | 0 mm | - | 352 W/m² | - |
| 1778016581 | 32.22° C | 50% | 1006.4 hPa | 0 mm | - | 364 W/m² | - |
| 1778016278 | 31.67° C | 50% | 1006.2 hPa | 0 mm | - | 374 W/m² | - |
| 1778015974 | 32.22° C | 49% | 1006.5 hPa | 0 mm | - | 449 W/m² | - |
| 1778015672 | 32.22° C | 50% | 1006.6 hPa | 0 mm | - | 517 W/m² | - |
| 1778015368 | 31.67° C | 51% | 1006.6 hPa | 0 mm | - | 593 W/m² | - |
| 1778015066 | 31.67° C | 51% | 1007 hPa | 0 mm | - | 624 W/m² | - |
| 1778014762 | 31.67° C | 51% | 1007.1 hPa | 0 mm | - | 467 W/m² | - |
| 1778014461 | 31.67° C | 50% | 1007.2 hPa | 0 mm | - | 464 W/m² | - |
| 1778014157 | 31.67° C | 49% | 1007.3 hPa | 0 mm | - | 441 W/m² | - |
| 1778013855 | 31.67° C | 51% | 1007.2 hPa | 0 mm | - | 582 W/m² | - |
| 1778013552 | 31.67° C | 49% | 1007.3 hPa | 0 mm | - | 563 W/m² | - |
| 1778013248 | 31.67° C | 50% | 1007.2 hPa | 0 mm | - | 412 W/m² | - |
| 1778012945 | 31.67° C | 50% | 1007.1 hPa | 0 mm | - | 529 W/m² | - |
| 1778012641 | 31.67° C | 50% | 1007.2 hPa | 0 mm | - | 574 W/m² | - |
| 1778012338 | 31.67° C | 51% | 1007.5 hPa | 0 mm | - | 614 W/m² | - |
| 1778012035 | 31.67° C | 51% | 1007.6 hPa | 0 mm | - | 510 W/m² | - |
| 1778011733 | 31.11° C | 51% | 1007.7 hPa | 0 mm | - | 678 W/m² | - |
* Rain latest hour (hover to see other rain measurements)
** Current wind speed in m/s (hover to see current wind gust speed)